| time (UTC) | temp F | wind direction | speed MPH | gust MPH | rain 1hr in | rain 24hr in | rain mn in | humidity % | barometer mb |
| 20260508024551 | 49 | 126 | 0.0 | 1.0 | 0.00 | 0.00 | 0.00 | 71 | 1001.3 |
| 20260508023045 | 49 | 124 | 0.0 | 2.0 | 0.00 | 0.00 | 0.00 | 71 | 1001.3 |
| 20260508021543 | 51 | 236 | 0.0 | 2.0 | 0.00 | 0.00 | 0.00 | 71 | 1001.3 |
| 20260508020041 | 51 | 207 | 0.0 | 3.0 | 0.00 | 0.00 | 0.00 | 70 | 1001.3 |
| 20260508014541 | 51 | 191 | 0.0 | 3.0 | 0.00 | 0.00 | 0.00 | 70 | 1001.3 |
| 20260508013140 | 52 | 173 | 0.0 | 2.0 | 0.00 | 0.00 | 0.00 | 69 | 1001.3 |
| 20260508011540 | 52 | 277 | 1.0 | 3.0 | 0.00 | 0.00 | 0.00 | 71 | 1001.3 |
| 20260508010042 | 52 | 292 | 0.0 | 3.0 | 0.00 | 0.00 | 0.00 | 71 | 1001.3 |
| 20260508004539 | 52 | 294 | 1.0 | 4.0 | 0.00 | 0.00 | 0.00 | 71 | 1001.3 |
| 20260508003039 | 52 | 276 | 1.0 | 5.0 | 0.00 | 0.00 | 0.00 | 72 | 1001.3 |
| 20260508001537 | 53 | 291 | 2.0 | 6.0 | 0.00 | 0.00 | 0.00 | 71 | 1001.3 |
| 20260508000036 | 54 | 292 | 3.0 | 7.0 | 0.00 | 0.00 | 0.00 | 70 | 1001.3 |
| 20260507234541 | 54 | 290 | 4.0 | 7.0 | 0.00 | 0.00 | 0.00 | 64 | 1001.3 |
| 20260507233035 | 54 | 288 | 2.0 | 5.0 | 0.00 | 0.00 | 0.00 | 68 | 1001.3 |
| 20260507231534 | 55 | 295 | 3.0 | 7.0 | 0.00 | 0.00 | 0.00 | 66 | 1001.3 |
| 20260507230033 | 55 | 224 | 2.0 | 6.0 | 0.00 | 0.00 | 0.00 | 65 | 1001.3 |
| 20260507224534 | 54 | 290 | 3.0 | 9.0 | 0.00 | 0.00 | 0.00 | 67 | 1001.3 |
| 20260507223031 | 54 | 290 | 4.0 | 8.0 | 0.00 | 0.00 | 0.00 | 68 | 1001.3 |
| 20260507221533 | 54 | 285 | 5.0 | 8.0 | 0.00 | 0.00 | 0.00 | 69 | 1001.3 |
| 20260507220030 | 54 | 291 | 3.0 | 7.0 | 0.00 | 0.00 | 0.00 | 65 | 1001.3 |
| 20260507214530 | 54 | 293 | 4.0 | 8.0 | 0.00 | 0.00 | 0.00 | 66 | 1001.3 |
| 20260507213029 | 54 | 304 | 4.0 | 8.0 | 0.00 | 0.00 | 0.00 | 68 | 1001.3 |
| 20260507211523 | 54 | 282 | 3.0 | 6.0 | 0.00 | 0.00 | 0.00 | 69 | 1001.3 |
| 20260507210021 | 53 | 299 | 3.0 | 7.0 | 0.00 | 0.00 | 0.00 | 66 | 1001.3 |
| 20260507204517 | 52 | 290 | 4.0 | 8.0 | 0.00 | 0.00 | 0.00 | 69 | 1001.3 |
| 20260507203018 | 52 | 290 | 6.0 | 9.0 | 0.00 | 0.00 | 0.00 | 68 | 1001.3 |
| 20260507201516 | 52 | 287 | 5.0 | 9.0 | 0.00 | 0.00 | 0.00 | 65 | 1001.3 |
| 20260507200015 | 52 | 292 | 5.0 | 8.0 | 0.00 | 0.00 | 0.00 | 66 | 1001.3 |
| 20260507194515 | 52 | 293 | 4.0 | 6.0 | 0.00 | 0.00 | 0.00 | 63 | 1001.3 |
| 20260507193017 | 52 | 282 | 3.0 | 5.0 | 0.00 | 0.00 | 0.00 | 63 | 1001.3 |
| 20260507191509 | 52 | 297 | 2.0 | 4.0 | 0.00 | 0.00 | 0.00 | 66 | 1001.3 |
| 20260507190007 | 51 | 294 | 3.0 | 5.0 | 0.00 | 0.00 | 0.00 | 67 | 1001.3 |
| 20260507184507 | 52 | 299 | 3.0 | 6.0 | 0.00 | 0.00 | 0.00 | 70 | 1001.3 |
| 20260507183008 | 51 | 292 | 4.0 | 6.0 | 0.00 | 0.00 | 0.00 | 70 | 1001.3 |
| 20260507181503 | 51 | 293 | 3.0 | 6.0 | 0.00 | 0.00 | 0.00 | 71 | 1001.3 |
| 20260507180003 | 51 | 295 | 3.0 | 5.0 | 0.00 | 0.00 | 0.00 | 70 | 1001.3 |
| 20260507174501 | 51 | 290 | 3.0 | 4.0 | 0.00 | 0.00 | 0.00 | 68 | 1001.3 |
| 20260507173002 | 51 | 300 | 3.0 | 6.0 | 0.00 | 0.00 | 0.00 | 68 | 1001.3 |
| 20260507171604 | 51 | 292 | 3.0 | 5.0 | 0.00 | 0.00 | 0.00 | 69 | 1001.3 |
| 20260507164631 | 51 | 294 | 2.0 | 4.0 | 0.00 | 0.00 | 0.00 | 74 | 1001.3 |
| 20260507163057 | 51 | 302 | 3.0 | 5.0 | 0.00 | 0.00 | 0.00 | 73 | 1001.3 |
| 20260507161601 | 51 | 302 | 2.0 | 3.0 | 0.00 | 0.00 | 0.00 | 74 | 1001.3 |
| 20260507160056 | 51 | 293 | 2.0 | 4.0 | 0.00 | 0.00 | 0.00 | 77 | 1001.3 |
| 20260507154555 | 51 | 290 | 2.0 | 3.0 | 0.00 | 0.00 | 0.00 | 75 | 1001.3 |
| 20260507153052 | 50 | 284 | 1.0 | 3.0 | 0.00 | 0.00 | 0.00 | 70 | 1001.3 |
| 20260507151551 | 50 | 284 | 1.0 | 3.0 | 0.00 | 0.00 | 0.00 | 74 | 1001.3 |
| 20260507150051 | 50 | 290 | 2.0 | 4.0 | 0.00 | 0.00 | 0.00 | 77 | 1001.3 |
| 20260507144549 | 50 | 291 | 1.0 | 3.0 | 0.00 | 0.00 | 0.00 | 82 | 1001.3 |
| 20260507143104 | 50 | 297 | 1.0 | 3.0 | 0.00 | 0.00 | 0.00 | 81 | 1001.3 |
| 20260507141605 | 50 | 233 | 1.0 | 3.0 | 0.00 | 0.00 | 0.00 | 80 | 1001.3 |
| 20260507140047 | 50 | 245 | 0.0 | 3.0 | 0.00 | 0.00 | 0.00 | 81 | 1001.3 |
| 20260507134547 | 50 | 278 | 1.0 | 5.0 | 0.00 | 0.00 | 0.00 | 81 | 1001.3 |
| 20260507133045 | 50 | 267 | 1.0 | 6.0 | 0.00 | 0.00 | 0.00 | 80 | 1001.3 |
| 20260507131554 | 50 | 268 | 1.0 | 3.0 | 0.00 | 0.00 | 0.00 | 81 | 1001.3 |
| 20260507130046 | 50 | 279 | 1.0 | 4.0 | 0.00 | 0.00 | 0.00 | 80 | 1001.3 |
| 20260507124543 | 50 | 266 | 0.0 | 4.0 | 0.00 | 0.00 | 0.00 | 78 | 1001.3 |
| 20260507123048 | 49 | 243 | 0.0 | 3.0 | 0.00 | 0.00 | 0.00 | 76 | 1001.3 |
| 20260507121543 | 49 | 153 | 0.0 | 2.0 | 0.00 | 0.00 | 0.00 | 77 | 1001.3 |
| 20260507120035 | 47 | 224 | 0.0 | 2.0 | 0.00 | 0.00 | 0.00 | 76 | 1001.3 |
| 20260507114532 | 46 | 122 | 0.0 | 2.0 | 0.00 | 0.00 | 0.00 | 79 | 1001.3 |
| 20260507113028 | 45 | 127 | 0.0 | 2.0 | 0.00 | 0.00 | 0.00 | 81 | 1001.3 |
| 20260507111529 | 44 | 110 | 0.0 | 2.0 | 0.00 | 0.00 | 0.00 | 82 | 1001.3 |
| 20260507110027 | 44 | 122 | 0.0 | 2.0 | 0.00 | 0.00 | 0.00 | 81 | 1001.3 |
| 20260507104527 | 44 | 122 | 0.0 | 1.0 | 0.00 | 0.00 | 0.00 | 82 | 1001.3 |
| 20260507103026 | 44 | 130 | 0.0 | 2.0 | 0.00 | 0.00 | 0.00 | 82 | 1001.3 |
| 20260507101526 | 44 | 130 | 0.0 | 2.0 | 0.00 | 0.00 | 0.00 | 81 | 1001.3 |
| 20260507100034 | 45 | 130 | 0.0 | 1.0 | 0.00 | 0.00 | 0.00 | 81 | 1001.3 |
| 20260507094525 | 45 | 168 | 0.0 | 2.0 | 0.00 | 0.02 | 0.00 | 80 | 1001.3 |
| 20260507093024 | 45 | 124 | 0.0 | 2.0 | 0.00 | 0.02 | 0.00 | 80 | 1001.3 |
| 20260507091524 | 45 | 134 | 0.0 | 4.0 | 0.00 | 0.02 | 0.00 | 80 | 1001.3 |
| 20260507090023 | 44 | 124 | 1.0 | 6.0 | 0.00 | 0.02 | 0.00 | 81 | 1001.3 |
| 20260507084522 | 44 | 141 | 1.0 | 4.0 | 0.00 | 0.08 | 0.00 | 81 | 1001.3 |
| 20260507083022 | 44 | 153 | 1.0 | 5.0 | 0.00 | 0.08 | 0.00 | 80 | 1001.3 |
| 20260507081522 | 44 | 118 | 1.0 | 5.0 | 0.00 | 0.08 | 0.00 | 80 | 1001.3 |
| 20260507080021 | 44 | 110 | 0.0 | 4.0 | 0.00 | 0.08 | 0.00 | 80 | 1001.3 |
| 20260507074521 | 44 | 96 | 1.0 | 4.0 | 0.00 | 0.11 | 0.00 | 80 | 1001.3 |
| 20260507073020 | 44 | 217 | 3.0 | 6.0 | 0.00 | 0.11 | 0.00 | 80 | 1001.3 |
| 20260507071528 | 44 | 193 | 0.0 | 4.0 | 0.00 | 0.11 | 0.00 | 79 | 1001.3 |
| 20260507070018 | 44 | 138 | 1.0 | 4.0 | 0.00 | 0.11 | 0.00 | 80 | 1001.3 |
| 20260507064531 | 44 | 118 | 0.0 | 3.0 | 0.00 | 0.13 | 0.00 | 80 | 1001.3 |
| 20260507063016 | 43 | 113 | 0.0 | 3.0 | 0.00 | 0.13 | 0.00 | 81 | 1001.3 |
| 20260507061515 | 43 | 124 | 1.0 | 3.0 | 0.00 | 0.13 | 0.00 | 81 | 1001.3 |
| 20260507060011 | 43 | 124 | 1.0 | 3.0 | 0.00 | 0.13 | 0.00 | 80 | 1001.3 |
| 20260507054509 | 43 | 123 | 0.0 | 1.0 | 0.00 | 0.16 | 0.00 | 79 | 1001.3 |
| 20260507053008 | 44 | 110 | 0.0 | 2.0 | 0.00 | 0.16 | 0.00 | 78 | 1001.3 |
| 20260507051505 | 44 | 119 | 0.0 | 3.0 | 0.00 | 0.16 | 0.00 | 77 | 1001.3 |
| 20260507050010 | 44 | 119 | 1.0 | 4.0 | 0.00 | 0.16 | 0.00 | 77 | 1001.3 |
| 20260507044501 | 45 | 122 | 0.0 | 3.0 | 0.00 | 0.17 | 0.00 | 77 | 1001.3 |
| 20260507043100 | 45 | 153 | 0.0 | 1.0 | 0.00 | 0.17 | 0.00 | 78 | 1001.3 |
| 20260507041559 | 45 | 142 | 0.0 | 2.0 | 0.00 | 0.17 | 0.00 | 77 | 1001.3 |
| 20260507040056 | 45 | 118 | 0.0 | 2.0 | 0.00 | 0.17 | 0.00 | 76 | 1001.3 |
| 20260507034556 | 45 | 107 | 0.0 | 2.0 | 0.00 | 0.27 | 0.17 | 76 | 1001.3 |
| 20260507033055 | 45 | 124 | 0.0 | 2.0 | 0.00 | 0.27 | 0.17 | 76 | 1001.3 |
| 20260507031554 | 45 | 124 | 0.0 | 1.0 | 0.00 | 0.27 | 0.17 | 75 | 1001.3 |
| 20260507030053 | 45 | 124 | 0.0 | 0.0 | 0.00 | 0.27 | 0.17 | 74 | 1001.3 |